Change the Weather History Date:

Saturday, December 7, 2013

  Actual Average (KVPZ) Record (KVPZ)
Temperature  
Mean Temperature 18 °F 31 °F  
Max Temperature 21 °F 37 °F 58 °F (2004)
Min Temperature 14 °F 24 °F -3 °F (2005)
Degree Days  
Heating Degree Days 48 34  
Month to date heating degree days 231  
Since 1 July heating degree days 1489  
Cooling Degree Days 0 0  
Month to date cooling degree days 0  
Year to date cooling degree days 713  
Moisture  
Dew Point 11 °F    
Average Humidity 71    
Maximum Humidity 93    
Minimum Humidity 58    
Precipitation  
Precipitation 0.00 in 0.09 in 0.86 in (2004)
Month to date precipitation 0.61  
Year to date precipitation 35.94  
Sea Level Pressure  
Sea Level Pressure 30.59 in    
Wind  
Wind Speed 6 mph (NW)    
Max Wind Speed 10 mph    
Max Gust Speed 16 mph    
Visibility 10 miles    
Events Snow    
T = Trace of Precipitation, MM = Missing Value Source: NWS Daily Summary

Daily Weather History Graph

Daily Weather History Graph

Search for Another Location

Airport or City:

Trip Planner

Search our weather history database for the weather conditions in past years. The results will help you decide how hot, cold, wet, or windy it might be!

Date:

Astronomy

Dec. 07, 2013 Rise Set
Actual Time 7:01 AM CST 4:16 PM CST
Civil Twilight 6:29 AM CST 4:47 PM CST
Nautical Twilight 5:54 AM CST 5:22 PM CST
Astronomical Twilight 5:21 AM CST 5:56 PM CST
Moon 10:42 AM CST (12/7) 10:01 PM CST (12/7)
Length of Visible Light 10h 18m
Length of Day
9h 15m
Waxing Crescent, 29% of the Moon is Illuminated
Dec 7
Waxing Crescent
Dec 9
First Quarter
Dec 17
Full
Dec 25
Last Quarter
Jan 1
New

Hourly Weather History & Observations

Time (CST) Temp. Windchill Dew Point Humidity Pressure Visibility Wind Dir Wind Speed Gust Speed Precip Events Conditions
12:15 AM 21.2 °F 10.9 °F 10.4 °F 63% 30.49 in 10.0 mi NW 9.2 mph - N/A   Overcast
12:35 AM 21.2 °F 11.7 °F 10.4 °F 63% 30.49 in 10.0 mi NW 8.1 mph 16.1 mph N/A   Overcast
12:55 AM 21.2 °F 11.7 °F 10.4 °F 63% 30.50 in 10.0 mi NW 8.1 mph 16.1 mph N/A   Overcast
1:15 AM 21.2 °F 11.7 °F 10.4 °F 63% 30.50 in 10.0 mi NW 8.1 mph - N/A   Overcast
1:35 AM 21.2 °F 12.6 °F 10.4 °F 63% 30.51 in 10.0 mi NW 6.9 mph - N/A   Overcast
1:55 AM 21.2 °F 10.9 °F 10.4 °F 63% 30.51 in 10.0 mi NW 9.2 mph 16.1 mph N/A   Overcast
2:15 AM 21.2 °F 11.7 °F 10.4 °F 63% 30.52 in 10.0 mi NW 8.1 mph - N/A   Overcast
2:35 AM 21.2 °F 11.7 °F 10.4 °F 63% 30.52 in 10.0 mi NW 8.1 mph - N/A   Overcast
2:55 AM 21.2 °F 12.6 °F 10.4 °F 63% 30.52 in 10.0 mi NW 6.9 mph - N/A   Overcast
3:15 AM 21.2 °F 10.9 °F 10.4 °F 63% 30.53 in 10.0 mi NW 9.2 mph - N/A   Overcast
3:35 AM 21.2 °F 10.1 °F 10.4 °F 63% 30.53 in 10.0 mi NW 10.4 mph - N/A   Overcast
3:55 AM 21.2 °F 10.9 °F 10.4 °F 63% 30.53 in 10.0 mi WNW 9.2 mph - N/A   Overcast
4:15 AM 21.2 °F 14.9 °F 10.4 °F 63% 30.54 in 10.0 mi NW 4.6 mph - N/A   Overcast
4:35 AM 21.2 °F 10.1 °F 10.4 °F 63% 30.54 in 10.0 mi North 10.4 mph - N/A   Overcast
4:55 AM 21.2 °F 10.1 °F 10.4 °F 63% 30.55 in 10.0 mi NNW 10.4 mph - N/A   Overcast
5:15 AM 19.4 °F 9.5 °F 10.4 °F 68% 30.55 in 10.0 mi NNW 8.1 mph - N/A   Overcast
5:35 AM 21.2 °F 12.6 °F 10.4 °F 63% 30.56 in 10.0 mi NW 6.9 mph - N/A   Overcast
5:55 AM 19.4 °F 12.8 °F 10.4 °F 68% 30.57 in 10.0 mi NNW 4.6 mph - N/A   Overcast
6:15 AM 19.4 °F 11.5 °F 10.4 °F 68% 30.57 in 10.0 mi NW 5.8 mph - N/A   Overcast
6:35 AM 19.4 °F 11.5 °F 10.4 °F 68% 30.58 in 10.0 mi NW 5.8 mph - N/A   Overcast
6:55 AM 19.4 °F 9.5 °F 10.4 °F 68% 30.59 in 10.0 mi NNW 8.1 mph - N/A   Overcast
7:15 AM 19.4 °F 10.4 °F 10.4 °F 68% 30.60 in 10.0 mi NNW 6.9 mph - N/A   Overcast
7:35 AM 19.4 °F 9.5 °F 10.4 °F 68% 30.60 in 10.0 mi NW 8.1 mph - N/A   Overcast
7:55 AM 19.4 °F 10.4 °F 10.4 °F 68% 30.61 in 10.0 mi NW 6.9 mph - N/A Snow Light Snow
8:15 AM 19.4 °F 11.5 °F 10.4 °F 68% 30.62 in 10.0 mi WNW 5.8 mph - N/A Snow Light Snow
8:35 AM 19.4 °F 10.4 °F 8.6 °F 63% 30.63 in 10.0 mi WNW 6.9 mph - N/A Snow Light Snow
8:55 AM 19.4 °F 10.4 °F 8.6 °F 63% 30.63 in 10.0 mi NW 6.9 mph - N/A   Overcast
9:15 AM 19.4 °F 8.6 °F 10.4 °F 68% 30.64 in 10.0 mi NNW 9.2 mph - N/A Snow Light Snow
9:35 AM 19.4 °F 10.4 °F 10.4 °F 68% 30.65 in 10.0 mi WNW 6.9 mph - N/A Snow Light Snow
9:55 AM 19.4 °F 10.4 °F 10.4 °F 68% 30.65 in 10.0 mi WNW 6.9 mph - N/A Snow Light Snow
10:15 AM 21.2 °F 13.6 °F 8.6 °F 58% 30.66 in 10.0 mi WNW 5.8 mph - N/A   Overcast
10:35 AM 19.4 °F 9.5 °F 10.4 °F 68% 30.66 in 7.0 mi NW 8.1 mph - N/A Snow Light Snow
10:55 AM 19.4 °F 10.4 °F 10.4 °F 68% 30.65 in 10.0 mi NW 6.9 mph - N/A Snow Light Snow
11:15 AM 19.4 °F 11.5 °F 10.4 °F 68% 30.64 in 7.0 mi WNW 5.8 mph - N/A Snow Light Snow
11:35 AM 19.4 °F 10.4 °F 10.4 °F 68% 30.64 in 10.0 mi NW 6.9 mph - N/A   Overcast
11:55 AM 19.4 °F 9.5 °F 10.4 °F 68% 30.64 in 10.0 mi NNW 8.1 mph - N/A   Overcast
12:15 PM 21.2 °F 12.6 °F 10.4 °F 63% 30.64 in 10.0 mi NW 6.9 mph - N/A Snow Light Snow
12:35 PM 19.4 °F 10.4 °F 8.6 °F 63% 30.64 in 10.0 mi NW 6.9 mph - N/A Snow Light Snow
12:55 PM 19.4 °F 8.6 °F 10.4 °F 68% 30.63 in 10.0 mi NNW 9.2 mph - N/A Snow Light Snow
1:15 PM 21.2 °F 11.7 °F 10.4 °F 63% 30.62 in 10.0 mi NW 8.1 mph - N/A   Overcast
1:35 PM 21.2 °F 11.7 °F 10.4 °F 63% 30.62 in 10.0 mi NW 8.1 mph - N/A   Overcast
1:55 PM 19.4 °F 11.5 °F 10.4 °F 68% 30.62 in 10.0 mi NNW 5.8 mph - N/A   Overcast
2:15 PM 19.4 °F 11.5 °F 10.4 °F 68% 30.62 in 10.0 mi NW 5.8 mph - N/A   Overcast
2:35 PM 19.4 °F 12.8 °F 10.4 °F 68% 30.61 in 10.0 mi NW 4.6 mph - N/A   Mostly Cloudy
2:55 PM 19.4 °F 12.8 °F 8.6 °F 63% 30.61 in 10.0 mi NW 4.6 mph - N/A   Mostly Cloudy
3:15 PM 21.2 °F 12.6 °F 10.4 °F 63% 30.61 in 10.0 mi WNW 6.9 mph - N/A   Overcast
3:35 PM 19.4 °F 12.8 °F 10.4 °F 68% 30.61 in 10.0 mi WNW 4.6 mph - N/A Snow Light Snow
3:55 PM 19.4 °F 10.4 °F 10.4 °F 68% 30.61 in 10.0 mi North 6.9 mph - N/A   Overcast
4:15 PM 19.4 °F - 10.4 °F 68% 30.61 in 10.0 mi Calm Calm - N/A   Mostly Cloudy
4:35 PM 19.4 °F - 10.4 °F 68% 30.62 in 10.0 mi Calm Calm - N/A   Mostly Cloudy
4:55 PM 19.4 °F - 10.4 °F 68% 30.62 in 10.0 mi Calm Calm - N/A   Overcast
5:15 PM 19.4 °F 12.8 °F 10.4 °F 68% 30.62 in 10.0 mi North 4.6 mph - N/A   Mostly Cloudy
5:35 PM 19.4 °F 14.3 °F 10.4 °F 68% 30.62 in 10.0 mi North 3.5 mph - N/A   Mostly Cloudy
5:55 PM 19.4 °F - 10.4 °F 68% 30.62 in 10.0 mi Calm Calm - N/A   Mostly Cloudy
6:15 PM 19.4 °F - 12.2 °F 74% 30.61 in 10.0 mi Calm Calm - N/A   Scattered Clouds
6:35 PM 19.4 °F - 10.4 °F 68% 30.61 in 10.0 mi Calm Calm - N/A   Mostly Cloudy
6:55 PM 17.6 °F - 12.2 °F 79% 30.61 in 10.0 mi Calm Calm - N/A   Scattered Clouds
7:15 PM 17.6 °F - 12.2 °F 79% 30.61 in 10.0 mi Calm Calm - N/A   Mostly Cloudy
7:35 PM 17.6 °F - 12.2 °F 79% 30.60 in 10.0 mi Calm Calm - N/A   Overcast
7:55 PM 17.6 °F - 12.2 °F 79% 30.59 in 10.0 mi Calm Calm - N/A   Scattered Clouds
8:15 PM 15.8 °F - 12.2 °F 86% 30.59 in 10.0 mi Calm Calm - N/A   Clear
8:35 PM 14.0 °F - 12.2 °F 93% 30.59 in 10.0 mi Calm Calm - N/A   Scattered Clouds
8:55 PM 14.0 °F - 12.2 °F 93% 30.58 in 10.0 mi Calm Calm - N/A   Scattered Clouds
9:15 PM 14.0 °F - 12.2 °F 93% 30.58 in 10.0 mi Calm Calm - N/A   Scattered Clouds
9:35 PM 14.0 °F - 10.4 °F 86% 30.57 in 10.0 mi Calm Calm - N/A   Clear
9:55 PM 14.0 °F - 12.2 °F 93% 30.57 in 10.0 mi Calm Calm - N/A   Clear
10:15 PM 14.0 °F - 12.2 °F 93% 30.56 in 10.0 mi Calm Calm - N/A   Clear
10:35 PM 15.8 °F - 12.2 °F 86% 30.56 in 10.0 mi Calm Calm - N/A   Clear
10:55 PM 15.8 °F - 12.2 °F 86% 30.56 in 10.0 mi Calm Calm - N/A   Clear
11:15 PM 14.0 °F - 12.2 °F 93% 30.55 in 10.0 mi Calm Calm - N/A   Clear
11:35 PM 14.0 °F - 12.2 °F 93% 30.56 in 10.0 mi Calm Calm - N/A   Clear
11:55 PM 14.0 °F - 12.2 °F 93% 30.55 in 10.0 mi Calm Calm - N/A   Clear